Tracking 19248 objects as of 26-Sep-2018
HD Live streaming from Space Station
objects crossing your sky now

FENGYUN 1C DEB

Track FENGYUN 1C DEB now!
10-day predictions


NORAD ID: 31325
Int'l Code: 1999-025BQD
Perigee: 832.3 km
Apogee: 952.6 km
Inclination: 99.1 °
Period: 102.7 minutes
Semi major axis: 7263 km
RCS: 0.0037 m2 (small)
Launch date: May 10, 1999
Source: People's Republic of China (PRC)
Launch site: Taiyaun Space Center, China (TSC)

Note: This is SATELLITE DEBRIS
aabbcc
Your satellite tracking list
Your tracking list is empty




NASA's NSSDC Master Catalog

Two Line Element Set (TLE):
1 31325U 99025BQD 18267.36433314 +.00000456 +00000-0 +31605-3 0  9993
2 31325 099.1187 327.1882 0082848 016.2961 344.0839 14.02458611227180
Source of the keplerian elements: AFSPC